TimeCDT,TemperatureF,Dew PointF,Humidity,Sea Level PressureIn,VisibilityMPH,Wind Direction,Wind SpeedMPH,Gust SpeedMPH,PrecipitationIn,Events,Conditions,WindDirDegrees,DateUTC
12:15 AM,63.0,60.8,93,29.93,10.0,Calm,Calm,-,N/A,,Overcast,0,2012-10-23 05:15:00
12:35 AM,63.5,61.0,91,29.92,10.0,ENE,3.5,-,N/A,,Overcast,60,2012-10-23 05:35:00
12:55 AM,63.0,60.8,93,29.92,10.0,Calm,Calm,-,N/A,,Overcast,0,2012-10-23 05:55:00
1:15 AM,61.9,60.4,95,29.92,7.0,East,3.5,-,N/A,Rain-Thunderstorm,Light Thunderstorms and Rain,90,2012-10-23 06:15:00
1:35 AM,62.6,60.8,94,29.92,7.0,ENE,3.5,-,N/A,Thunderstorm,Overcast,60,2012-10-23 06:35:00
1:55 AM,62.6,60.8,94,29.92,5.0,East,4.6,-,N/A,,Overcast,100,2012-10-23 06:55:00
2:15 AM,61.9,60.4,95,29.92,3.0,ESE,5.8,-,N/A,,Overcast,120,2012-10-23 07:15:00
2:35 AM,62.2,60.8,95,29.92,5.0,SSE,5.8,-,N/A,Thunderstorm,Overcast,150,2012-10-23 07:35:00
2:55 AM,62.6,60.8,94,29.91,7.0,SE,4.6,-,N/A,,Overcast,140,2012-10-23 07:55:00
3:15 AM,62.2,60.8,95,29.91,7.0,SSE,3.5,-,N/A,,Overcast,150,2012-10-23 08:15:00
3:35 AM,62.1,60.3,94,29.90,10.0,South,4.6,-,N/A,,Overcast,170,2012-10-23 08:35:00
4:15 AM,61.7,59.4,92,29.90,10.0,SSW,4.6,-,N/A,,Overcast,200,2012-10-23 09:15:00
4:35 AM,62.6,58.3,86,29.90,10.0,SSW,3.5,-,N/A,,Overcast,200,2012-10-23 09:35:00
4:55 AM,62.1,57.6,85,29.90,10.0,Calm,Calm,-,N/A,,Overcast,0,2012-10-23 09:55:00
5:15 AM,61.7,57.4,86,29.91,10.0,SSW,3.5,-,N/A,,Overcast,210,2012-10-23 10:15:00
5:35 AM,62.6,57.2,82,29.91,10.0,Calm,Calm,-,N/A,,Overcast,0,2012-10-23 10:35:00
6:15 AM,61.2,57.2,87,29.90,10.0,SW,5.8,-,N/A,,Overcast,220,2012-10-23 11:15:00
6:35 AM,61.2,57.0,86,29.90,10.0,Calm,Calm,-,N/A,,Overcast,0,2012-10-23 11:35:00
6:55 AM,61.0,57.2,87,29.91,10.0,Calm,Calm,-,N/A,,Overcast,0,2012-10-23 11:55:00
7:15 AM,60.8,57.2,88,29.92,10.0,South,4.6,-,N/A,Thunderstorm,Overcast,190,2012-10-23 12:15:00
7:35 AM,61.0,56.7,86,29.93,10.0,Calm,Calm,-,N/A,,Overcast,0,2012-10-23 12:35:00
7:55 AM,61.2,56.7,85,29.93,10.0,Calm,Calm,-,N/A,,Overcast,0,2012-10-23 12:55:00
8:15 AM,61.5,57.2,86,29.94,10.0,SSE,3.5,-,N/A,Rain,Light Rain,150,2012-10-23 13:15:00
8:35 AM,60.8,56.5,86,29.95,10.0,South,12.7,-,N/A,Rain,Light Rain,170,2012-10-23 13:35:00
8:55 AM,60.1,57.2,90,29.95,10.0,South,10.4,-,N/A,Rain,Light Rain,180,2012-10-23 13:55:00
9:15 AM,60.1,58.1,93,29.96,10.0,SSW,6.9,-,N/A,Rain,Light Rain,200,2012-10-23 14:15:00
9:35 AM,60.3,58.1,93,29.96,10.0,SSW,8.1,-,N/A,Rain,Light Rain,200,2012-10-23 14:35:00
9:55 AM,60.8,58.6,93,29.95,10.0,SSW,4.6,-,N/A,Rain,Light Rain,200,2012-10-23 14:55:00
10:15 AM,61.3,59.4,93,29.94,7.0,SSW,5.8,-,N/A,Rain-Thunderstorm,Rain,200,2012-10-23 15:15:00
10:35 AM,61.9,60.1,94,29.95,7.0,SSW,9.2,-,N/A,Rain-Thunderstorm,Light Thunderstorms and Rain,210,2012-10-23 15:35:00
10:55 AM,61.9,60.1,94,29.95,7.0,SSW,11.5,-,0.02,Rain,Light Rain,200,2012-10-23 15:55:00
11:15 AM,62.6,60.8,94,29.95,7.0,South,9.2,-,N/A,,Overcast,190,2012-10-23 16:15:00
11:35 AM,61.9,60.1,94,29.94,10.0,South,12.7,17.3,N/A,,Overcast,180,2012-10-23 16:35:00
11:55 AM,62.2,60.4,94,29.94,10.0,SSW,13.8,-,N/A,Thunderstorm,Thunderstorm,200,2012-10-23 16:55:00
12:15 PM,62.6,60.8,94,29.94,7.0,SSW,15.0,-,0.02,Rain,Heavy Rain,200,2012-10-23 17:15:00
12:35 PM,63.5,61.0,91,29.94,10.0,SSW,11.5,16.1,0.03,Thunderstorm,Overcast,200,2012-10-23 17:35:00
12:55 PM,63.5,61.2,92,29.93,10.0,SSW,13.8,-,0.03,Rain,Light Rain,200,2012-10-23 17:55:00
1:15 PM,63.9,61.0,90,29.92,10.0,South,13.8,-,N/A,,Mostly Cloudy,190,2012-10-23 18:15:00
1:35 PM,64.6,60.8,88,29.92,10.0,SSW,10.4,-,N/A,,Mostly Cloudy,200,2012-10-23 18:35:00
1:55 PM,63.9,60.1,87,29.91,10.0,South,15.0,-,N/A,,Mostly Cloudy,190,2012-10-23 18:55:00
2:15 PM,64.0,60.3,87,29.91,10.0,South,11.5,17.3,N/A,,Overcast,190,2012-10-23 19:15:00
2:35 PM,64.6,61.2,89,29.91,10.0,South,10.4,-,N/A,Rain,Light Rain,190,2012-10-23 19:35:00
2:55 PM,66.2,61.3,84,29.91,10.0,SSW,11.5,19.6,N/A,Rain,Light Rain,200,2012-10-23 19:55:00
3:15 PM,66.2,61.2,84,29.91,10.0,SSW,12.7,-,N/A,,Mostly Cloudy,200,2012-10-23 20:15:00
3:35 PM,65.8,61.2,85,29.91,10.0,SSW,12.7,-,N/A,,Overcast,210,2012-10-23 20:35:00
3:55 PM,65.8,60.4,83,29.91,10.0,SSW,12.7,-,N/A,,Overcast,210,2012-10-23 20:55:00
4:15 PM,65.8,60.3,82,29.91,10.0,SSW,12.7,-,N/A,,Overcast,210,2012-10-23 21:15:00
4:35 PM,65.3,60.6,85,29.91,10.0,SSW,10.4,-,N/A,Rain,Light Rain,200,2012-10-23 21:35:00
4:55 PM,64.9,60.8,86,29.91,10.0,SSW,9.2,-,N/A,,Overcast,200,2012-10-23 21:55:00
5:15 PM,65.8,60.8,84,29.91,10.0,South,8.1,-,N/A,,Overcast,190,2012-10-23 22:15:00
5:35 PM,64.9,60.3,85,29.91,10.0,South,10.4,-,N/A,,Scattered Clouds,180,2012-10-23 22:35:00
5:55 PM,63.7,59.9,87,29.91,10.0,South,5.8,-,N/A,,Clear,180,2012-10-23 22:55:00
6:15 PM,62.6,59.5,90,29.92,10.0,South,5.8,-,N/A,,Clear,170,2012-10-23 23:15:00
6:35 PM,60.3,58.1,93,29.93,10.0,South,4.6,-,N/A,,Clear,170,2012-10-23 23:35:00
6:55 PM,61.7,59.0,91,29.93,10.0,South,8.1,-,N/A,,Clear,180,2012-10-23 23:55:00
7:15 PM,61.2,59.0,93,29.93,10.0,South,8.1,-,N/A,,Clear,170,2012-10-24 00:15:00
7:35 PM,60.8,58.6,93,29.93,10.0,South,6.9,-,N/A,,Clear,180,2012-10-24 00:35:00
7:55 PM,60.1,58.3,94,29.93,10.0,South,6.9,-,N/A,,Scattered Clouds,180,2012-10-24 00:55:00
8:15 PM,61.2,59.4,94,29.94,10.0,South,6.9,-,N/A,,Mostly Cloudy,180,2012-10-24 01:15:00
8:35 PM,62.1,59.5,91,29.93,10.0,South,8.1,-,N/A,,Overcast,180,2012-10-24 01:35:00
8:55 PM,61.7,59.2,91,29.93,10.0,South,5.8,-,N/A,,Overcast,170,2012-10-24 01:55:00
9:15 PM,61.2,59.0,93,29.93,10.0,South,8.1,-,N/A,,Overcast,180,2012-10-24 02:15:00
9:35 PM,61.7,59.2,91,29.94,10.0,South,8.1,-,N/A,,Overcast,180,2012-10-24 02:35:00
9:55 PM,62.6,59.0,88,29.94,10.0,South,9.2,-,N/A,,Overcast,180,2012-10-24 02:55:00
10:15 PM,62.1,59.4,91,29.94,10.0,South,6.9,-,N/A,,Overcast,180,2012-10-24 03:15:00
10:35 PM,62.1,59.2,90,29.94,10.0,South,5.8,-,N/A,,Overcast,180,2012-10-24 03:35:00
10:55 PM,62.1,59.2,90,29.94,10.0,South,3.5,-,N/A,,Overcast,170,2012-10-24 03:55:00
11:15 PM,61.9,59.0,90,29.95,10.0,Calm,Calm,-,N/A,,Overcast,0,2012-10-24 04:15:00
11:35 PM,61.9,59.0,90,29.95,10.0,SSE,3.5,-,N/A,,Overcast,160,2012-10-24 04:35:00
11:55 PM,61.9,59.0,90,29.95,10.0,South,4.6,-,N/A,,Overcast,170,2012-10-24 04:55:00